Tracking 19280 objects as of 14-Nov-2018
HD Live streaming from Space Station
objects crossing your sky now

COSMOS 1348

Track COSMOS 1348 now!
COSMOS 1348 is classified as:


NORAD ID: 13124
Int'l Code: 1982-029A
Perigee: 8,366.4 km
Apogee: 32,055.6 km
Inclination: 71.9 °
Period: 718.9 minutes
Semi major axis: 26582 km
RCS: 16.1516 m2 (large)
Launch date: April 7, 1982
Source: Commonwealth of Independent States (former USSR) (CIS)
Launch site: PLESETSK MISSILE AND SPACE COMPLEX (PKMTR)
aabbcc
Your satellite tracking list
Your tracking list is empty




NASA's NSSDC Master Catalog

Two Line Element Set (TLE):
1 13124U 82029A   18317.28504622  .00000072  00000-0  00000+0 0  9999
2 13124  71.8796 246.9658 4455869  54.4211 249.6477  2.00318597267839
Source of the keplerian elements: AFSPC